Погода Мыс Биллингс

Погода Мыс Биллингс : погода сейчас, прогноз погоды и архив. Всё, что Вы хотите узнать о погоде Мыс Биллингс!

Поиск расширенной информации на нашем сайте:

Другие новости

Новости СМИ2

Главная страница сайта

Новости сайта

03.07.2017

Напоминаем, что на нашем специализированном сайте Метеоцентр.Азия вы можете получить высокодетализированные автоматические прогнозы погоды по пунктам России, СНГ и мира в авиационном формате (включающие направление и скорость ветра, видимость, явления погоды, количество и форму облачности, нижнюю и верхнюю границу облачности).


Погода Мыс Биллингс - сегодня

Время (UTC), дата Ветер
(°,м/с) 
Видим.   Явления Облачность Т
(°С)
Тd
(°С)
f(%) Тe
(°С)
Pmin
(гПа)
dP
(гПа)
Po
(мм)
O2
(г/м3)
Тmin Tmax R s Состояние
почвы
12 28.07.18 100 (В) 3{05}  20000 м    10/10 600 м 
[Sc]
+4 +2.5 90 +3  1006.7  755  299           
12 31.07.18 090 (В) 6{08}  20000 м    9/9 600 м 
[Sc]
+2.9 +1.3 89 1008.7  0.9  756  301           
00 01.08.18 060 (СВ) 4{06}  20000 м    3/3 600 м 
[Sc]
+3.6 +2.1 90 +2  1008.8  -0.4  756  300           
00 02.08.18 020 (С) 3{05}  20000 м    6/3 600 м верхняя 
[Sc|Ci fib]
+2.6 +1.3 91 +1  1009  0.6  756  302           
12 02.08.18 080 (В) 7{09}  0200 м  туман  ?/?  
+2.3 +2.3 100 -1  1010.9  2.1  758  302           
00 03.08.18 070 (В) 7{09}  0200 м  туман{дождь}  ?/?  
+1.1 +1.1 100 -3  1016.4  3.2  762  306           
12 03.08.18 070 (В) 5{07}  20000 м    10/10 600 м 
[Sc]
+0 -1.5 90 -3  1020.6  1.7  765  309           
00 05.08.18 020 (С) 2{04}  10 км    9/6 600 м средняя 
[Sc|Ac trans]
+1.3 -0.1 90 +1  1013.1  -2.1  760  305           
12 05.08.18 070 (В) 6{08}  20000 м    9/9 600 м 
[Sc]
+1 -0.4 90 -2  1011.7  -0.1  758  305           
00 07.08.18 310 (СЗ) 3{05}  10 км    8/8 600 м 
[Sc]
+0.9 -0.5 90 -1  1016.6  1.3  762  306           
06 08.08.18 300 (СЗ) 8-10{10}  4000 м  слаб. крупа{ливн. осадки}  9/9 200 м кучево-дожд. 
[Cb cap]
-0.3 -1.2 94 -5  1018.2  -0.1  763  308    +0.5  0.0     
00 09.08.18 310 (СЗ) 6{08}  20000 м    10/10 200 м 
[St]
-0.1 -1.5 90 -4  1023.3  0.8  767  309           
12 09.08.18 290 (З) 3{06}  20000 м    10/10 200 м 
[St]
-0.5 -1.7 92 -2  1023.5  0.4  767  310           
00 10.08.18 290 (З) 5{07}  10 км    10/10 200 м 
[St]
+1.3 -0.1 90 -1  1022  -0.7  766  307           
12 10.08.18 320 (СЗ) 4{06}  20000 м    9/9 200 м 
[St]
-0.2 -1.7 90 -3  1020.2  -0.4  765  309           
00 11.08.18 290 (З) 5{07}  20000 м    9/9 200 м 
[St]
+0.4 -1.3 88 -3  1019.6  0.2  764  308           
00 12.08.18 070 (В) 5{07}  10 км    9/9 200 м 
[St]
-0.2 -1.4 92 -3  1019.5  0.5  764  308           
12 12.08.18 080 (В) 4{06}  0500 м  туман  ?/?  
+1.7 +1.7 100 1019.1  0.7  764  306           
12 13.08.18 310 (СЗ) 4{06}  0500 м  слаб. морось{туман}  ?/?  
-0.5 -0.5 100 -3  1022.2  1.5  766  309           
00 14.08.18 290 (З) 4{06}  20000 м  {морось, туман}  ясно 
+3.5 +1.2 85 +2  1025.3  1.9  769  306           
12 14.08.18 110 (В) 2{04}  20000 м    3/0 верхняя 
[Ci fib]
+1 -0.4 90 1024.3  -0.9  768  308           
00 15.08.18 230 (ЮЗ) 3{05}  20000 м    8/0 средняя, верхняя 
[Ac cast|Ci fib]
+12.8 +5.3 60 +13  1019.6  -3.6  764  293           
12 15.08.18 220 (ЮЗ) 7{09}  20000 м    6/0 средняя, верхняя 
[Ac trans|Ci fib]
+9.3 +5.3 76 +7  1013.1  -3.1  760  295           
12 16.08.18 220 (ЮЗ) 3{05}  20000 м    9/0 средняя 
[Ac trans]
+10.9 +7.8 81 +11  1002.8  -2.6  752  290           
00 17.08.18 210 (ЮЗ) 4{06}  20000 м    9/0 средняя 
[Ac trans]
+12.5 +8.5 77 +12  1000  -0.6  750  287           
Время (UTC), дата Ветер
(°,м/с) 
Видим.   Явления Облачность Т
(°С)
Тd
(°С)
f(%) Тe
(°С)
Pmin
(гПа)
dP
(гПа)
Po
(мм)
O2
(г/м3)
Тmin Tmax R s Состояние
почвы

Для получения пояснительной информации подведите курсор к названию столбца.

ПОГОДА Мыс Биллингс - архив

Всё, что Вы хотите узнать о погоде Мыс Биллингс - удобно и подробно!

Выберите нужную дату (начиная с 1 января 2015* года) и нажмите кнопку "Найти".
Будут отображены архивные сводки погоды по пункту Мыс Биллингс, начиная с указанной даты.


Отображать данные в формате CSV (для использования в таблицах Excel)


Внимание! Наш архив погоды предназначен исключительно для личного некоммерческого использования в познавательных целях. Если Вам необходимы официальные справки о состоянии погоды (для производственных, юридических, коммерческих и т.п. целей), обращайтесь в органы Росгидромета.

*Примечание: данная дата относится к архиву по метеостанциям СССР (Россия, СНГ, Балтия).
Архив по метеостанциям Зарубежной Европы и Азии (кроме Китая) хранится 10 дней, по другим регионам земного шара (Китай, Африка, Америка, Австралия, Океания) - 1 день.

Мыс Биллингс - район местоположения метеостанции


Название, широта, долгота, высота метеостанции:
Мыс Биллингс 69.88°ш. 175.76°д. 3 м над ур. моря [Российская Федерация]

Дополнительная информация

В oтличие oт бoльшинства пoгoдных сайтoв мы публикуем пoдрoбную метеoинфoрмацию в детальнoм прoфессиoнальнoм фoрмате.

Характеристики температуры и влажнoсти вoздуха измеряются на высoте 2 м в тени вдали oт зданий и деревьев.
Скoрoсть ветра измеряется на высoте 10 м (на урoвне рoста челoвека скoрoсть ветра ниже в 1.5-2 раза). Если метеoстанция нахoдится в гoрoде или в лесу, тo скoрoсть ветра занижена на 2-4 м/с пo сравнению с oткрытым местoм. Скoрoсть ветра над акватoриями крупных рек и oзёр, а также на вершинах хoлмoв на 2-5 м/с выше, чем в oбычных услoвиях.
Атмoсфернoе давление в разных тoчках местнoсти мoжет значительнo oтличаться oт давления на метеoстанции, в зависимoсти oт услoвий рельефа (при пoдъёме на 10 м давление пoнижается примернo на 1 мм рт.ст.).